Hourly Data Report for April 18, 2018

KENORA A
ONTARIO
Current Station Operator: NAVCAN

49°47'18.000" N
94°21'47.000" W
409.70 m
6034076
71850
YQK

Download Data

Hourly Data (April 2018)
Hourly Data Report for April 18, 2018
TIME
LST
Temp Definition
°C
Dew Point Definition
°C
Rel Hum Definition
%
Precip. Amount Definition
mm

Wind Dir Definition
10's deg

Wind Spd Definition
km/h
Visibility Definition
km
Stn Press Definition
kPa
Hmdx Definition


Wind Chill Definition


Weather Definition


00:00 0.4 -12.3 38   5 12 24.1 97.11     Clear
01:00 -0.3 -12.9 38   5 12 24.1 97.14   -4 LegendNANA
02:00 -1.2 -14.1 37   5 11 24.1 97.15   -5 LegendNANA
03:00 -1.7 -14.0 39   5 14 24.1 97.15   -6 Clear
04:00 -2.6 -14.0 41   5 13 24.1 97.17   -7 LegendNANA
05:00 -2.9 -14.3 42   5 15 24.1 97.21   -8 LegendNANA
06:00 -2.9 -14.2 42   5 14 24.1 97.26   -8 Mainly Clear
07:00 -2.2 -13.6 42   4 14 24.1 97.34   -7 LegendNANA
08:00 -0.8 -12.9 40   4 17 24.1 97.34   -6 LegendNANA
09:00 0.9 -12.6 36   36 11 24.1 97.42     Mainly Clear
10:00 2.4 -15.7 25   1 13 24.1 97.46     LegendNANA
11:00 4.2 -15.2 23   5 9 32.2 97.45     LegendNANA
12:00 5.3 -16.1 20   2 18 32.2 97.41     Mostly Cloudy
13:00 6.6 -15.7 19   4 17 24.1 97.39     LegendNANA
14:00 7.3 -16.7 16   2 20 24.1 97.39     LegendNANA
15:00 7.6 -14.5 19   4 16 32.2 97.39     Mainly Clear
16:00 7.8 -15.1 18   7 17 32.2 97.40     LegendNANA
17:00 7.5 -14.5 19   6 11 24.1 97.42     LegendNANA
18:00 7.2 -12.6 23   7 7 24.1 97.44     Mainly Clear
19:00 6.5 -14.8 20   6 8 24.1 97.48     LegendNANA
20:00 6.2 -15.6 19   6 7 24.1 97.56     LegendNANA
21:00 3.2 -11.3 34   7 5 24.1 97.60     Mainly Clear
22:00 2.8 -10.8 36   8 4 24.1 97.63     LegendNANA
23:00 2.0 -9.1 44   14 3 24.1 97.65     LegendNANA

Notes on Data Quality.

Legend

  • E = Estimated
  • M = Missing
  • NA = Not Available*
  • [empty] = Indicates an unobserved value
Date modified: